When you browse on this site, cookies collect data to enhance your experience and personalize the content and advertising you see.
Visit our Privacy Policy to learn more. By continuing to use the site, you agree to this use of cookies and data.
  • In United Kingdom
  • List of Countries
  • For 7 days
  • Water Temperature
  • Weather Map
  • Weather Widgets
  • user-avatar
    Login

    Hourly Weather Luksor

    Today, 12 November, Tuesday

    Time Temperature Precipitation Wind Pressure Humidity
    00:00 +24°C° 0 mm 2 mps 749 mmHg 59%
    01:00 +24°C° 0 mm 1 mps 749 mmHg 60%
    02:00 +23°C° 0 mm 1 mps 748 mmHg 65%
    03:00 +23°C° 0 mm 1 mps 748 mmHg 65%
    04:00 +22°C° 0 mm 1 mps 749 mmHg 66%
    05:00 +22°C° 0 mm 1 mps 749 mmHg 66%
    06:00 +24°C° 0 mm 1 mps 749 mmHg 59%
    07:00 +26°C° 0 mm 1 mps 750 mmHg 51%
    08:00 +28°C° 0 mm 1 mps 750 mmHg 44%
    09:00 +30°C° 0 mm 2 mps 750 mmHg 39%
    10:00 +31°C° 0 mm 2 mps 750 mmHg 34%
    11:00 +34°C° 0 mm 3 mps 750 mmHg 29%
    12:00 +35°C° 0 mm 3 mps 749 mmHg 27%
    13:00 +36°C° 0 mm 3 mps 748 mmHg 25%
    14:00 +37°C° 0 mm 2 mps 748 mmHg 23%
    15:00 +35°C° 0 mm 3 mps 748 mmHg 25%
    16:00 +34°C° 0 mm 4 mps 748 mmHg 28%
    17:00 +33°C° 0 mm 5 mps 748 mmHg 31%
    18:00 +30°C° 0 mm 4 mps 748 mmHg 38%
    19:00 +28°C° 0 mm 4 mps 748 mmHg 46%
    20:00 +27°C° 0 mm 3 mps 749 mmHg 53%
    21:00 +26°C° 0 mm 2 mps 749 mmHg 56%
    22:00 +25°C° 0 mm 2 mps 749 mmHg 58%
    23:00 +24°C° 0 mm 1 mps 749 mmHg 61%

    Tomorrow, 13 November, Wednesday

    Time Temperature Precipitation Wind Pressure Humidity
    00:00 +24°C° 0 mm 1 mps 749 mmHg 62%
    01:00 +23°C° 0 mm 1 mps 749 mmHg 63%
    02:00 +21°C° 0 mm 0 mps 748 mmHg 64%
    03:00 +21°C° 0 mm 0 mps 748 mmHg 63%
    04:00 +22°C° 0 mm 1 mps 749 mmHg 63%
    05:00 +22°C° 0 mm 1 mps 749 mmHg 62%
    06:00 +24°C° 0 mm 1 mps 749 mmHg 56%
    07:00 +26°C° 0 mm 1 mps 749 mmHg 50%
    08:00 +28°C° 0 mm 1 mps 750 mmHg 44%
    09:00 +30°C° 0 mm 1 mps 749 mmHg 40%
    10:00 +31°C° 0 mm 1 mps 749 mmHg 37%
    11:00 +33°C° 0 mm 1 mps 749 mmHg 33%
    12:00 +34°C° 0 mm 1 mps 749 mmHg 31%
    13:00 +35°C° 0 mm 1 mps 748 mmHg 28%
    14:00 +36°C° 0 mm 1 mps 747 mmHg 26%
    15:00 +34°C° 0 mm 1 mps 747 mmHg 28%
    16:00 +33°C° 0 mm 1 mps 747 mmHg 31%
    17:00 +31°C° 0 mm 1 mps 748 mmHg 33%
    18:00 +31°C° 0 mm 2 mps 748 mmHg 37%
    19:00 +30°C° 0 mm 3 mps 748 mmHg 41%
    20:00 +29°C° 0 mm 3 mps 749 mmHg 45%
    21:00 +28°C° 0 mm 3 mps 749 mmHg 52%
    22:00 +27°C° 0 mm 2 mps 749 mmHg 58%
    23:00 +26°C° 0 mm 2 mps 749 mmHg 65%

    Day after tomorrow, 14 November, Thursday

    Time Temperature Precipitation Wind Pressure Humidity
    00:00 +26°C° 0 mm 2 mps 749 mmHg 67%
    01:00 +25°C° 0 mm 1 mps 749 mmHg 69%
    02:00 +25°C° 0 mm 1 mps 749 mmHg 72%
    03:00 +24°C° 0 mm 1 mps 749 mmHg 73%
    04:00 +24°C° 0 mm 1 mps 749 mmHg 74%
    05:00 +24°C° 0 mm 1 mps 749 mmHg 76%
    06:00 +25°C° 0 mm 1 mps 750 mmHg 69%
    07:00 +27°C° 0 mm 1 mps 750 mmHg 62%
    08:00 +29°C° 0 mm 1 mps 750 mmHg 55%
    09:00 +31°C° 0 mm 1 mps 750 mmHg 49%
    10:00 +32°C° 0 mm 1 mps 750 mmHg 43%
    11:00 +34°C° 0 mm 1 mps 750 mmHg 37%
    12:00 +35°C° 0 mm 1 mps 749 mmHg 32%
    13:00 +37°C° 0 mm 2 mps 749 mmHg 28%
    14:00 +38°C° 0 mm 2 mps 748 mmHg 23%
    15:00 +37°C° 0 mm 2 mps 748 mmHg 23%
    16:00 +36°C° 0 mm 3 mps 749 mmHg 24%
    17:00 +34°C° 0 mm 3 mps 749 mmHg 25%
    18:00 +33°C° 0 mm 4 mps 749 mmHg 26%
    19:00 +32°C° 0 mm 5 mps 750 mmHg 27%
    20:00 +29°C° 0 mm 5 mps 750 mmHg 28%
    21:00 +28°C° 0 mm 4 mps 751 mmHg 29%
    22:00 +27°C° 0 mm 4 mps 751 mmHg 31%
    23:00 +26°C° 0 mm 3 mps 751 mmHg 32%

    15 November, Friday

    Time Temperature Precipitation Wind Pressure Humidity
    00:00 +25°C° 0 mm 3 mps 751 mmHg 34%
    01:00 +25°C° 0 mm 3 mps 751 mmHg 35%
    02:00 +24°C° 0 mm 3 mps 751 mmHg 37%
    03:00 +22°C° 0 mm 3 mps 751 mmHg 40%
    04:00 +21°C° 0 mm 2 mps 751 mmHg 43%
    05:00 +21°C° 0 mm 2 mps 751 mmHg 46%
    06:00 +21°C° 0 mm 2 mps 751 mmHg 47%
    07:00 +22°C° 0 mm 3 mps 752 mmHg 47%
    08:00 +24°C° 0 mm 3 mps 752 mmHg 47%
    09:00 +26°C° 0 mm 3 mps 752 mmHg 42%
    10:00 +28°C° 0 mm 4 mps 752 mmHg 36%
    11:00 +30°C° 0 mm 5 mps 752 mmHg 30%
    12:00 +32°C° 0 mm 5 mps 751 mmHg 27%
    13:00 +33°C° 0 mm 5 mps 751 mmHg 25%
    14:00 +34°C° 0 mm 6 mps 750 mmHg 22%
    15:00 +33°C° 0 mm 6 mps 750 mmHg 24%
    16:00 +30°C° 0 mm 6 mps 750 mmHg 26%
    17:00 +29°C° 0 mm 6 mps 750 mmHg 28%
    18:00 +28°C° 0 mm 5 mps 751 mmHg 31%
    19:00 +26°C° 0 mm 5 mps 751 mmHg 35%
    20:00 +25°C° 0 mm 4 mps 751 mmHg 38%
    21:00 +23°C° 0 mm 4 mps 751 mmHg 44%
    22:00 +22°C° 0 mm 4 mps 751 mmHg 50%
    23:00 +22°C° 0 mm 4 mps 751 mmHg 57%

    16 November, Saturday

    Time Temperature Precipitation Wind Pressure Humidity
    00:00 +21°C° 0 mm 3 mps 751 mmHg 61%
    01:00 +20°C° 0 mm 3 mps 751 mmHg 65%
    02:00 +19°C° 0 mm 3 mps 751 mmHg 69%
    03:00 +19°C° 0 mm 3 mps 751 mmHg 73%
    04:00 +18°C° 0 mm 2 mps 751 mmHg 77%
    05:00 +18°C° 0 mm 2 mps 751 mmHg 80%
    06:00 +19°C° 0 mm 2 mps 751 mmHg 76%
    07:00 +19°C° 0 mm 3 mps 751 mmHg 72%
    08:00 +20°C° 0 mm 3 mps 751 mmHg 68%
    09:00 +22°C° 0 mm 3 mps 751 mmHg 58%
    10:00 +25°C° 0 mm 4 mps 751 mmHg 48%
    11:00 +28°C° 0 mm 4 mps 750 mmHg 38%
    12:00 +29°C° 0 mm 5 mps 750 mmHg 33%
    13:00 +30°C° 0 mm 5 mps 749 mmHg 28%
    14:00 +32°C° 0 mm 5 mps 749 mmHg 22%
    15:00 +30°C° 0 mm 5 mps 749 mmHg 25%
    16:00 +28°C° 0 mm 5 mps 749 mmHg 28%
    17:00 +26°C° 0 mm 5 mps 749 mmHg 31%
    18:00 +25°C° 0 mm 5 mps 749 mmHg 33%
    19:00 +23°C° 0 mm 5 mps 750 mmHg 35%
    20:00 +22°C° 0 mm 5 mps 750 mmHg 37%
    21:00 +21°C° 0 mm 4 mps 750 mmHg 40%
    22:00 +20°C° 0 mm 3 mps 750 mmHg 43%
    23:00 +19°C° 0 mm 3 mps 751 mmHg 46%

    17 November, Sunday

    Time Temperature Precipitation Wind Pressure Humidity
    00:00 +18°C° 0 mm 2 mps 750 mmHg 51%
    01:00 +17°C° 0 mm 2 mps 750 mmHg 55%
    02:00 +18°C° 0 mm 1 mps 750 mmHg 59%
    03:00 +16°C° 0 mm 1 mps 750 mmHg 61%
    04:00 +16°C° 0 mm 2 mps 750 mmHg 63%
    05:00 +15°C° 0 mm 2 mps 750 mmHg 65%
    06:00 +18°C° 0 mm 1 mps 751 mmHg 61%
    07:00 +19°C° 0 mm 1 mps 751 mmHg 57%
    08:00 +20°C° 0 mm 1 mps 751 mmHg 53%
    09:00 +22°C° 0 mm 1 mps 751 mmHg 46%
    10:00 +24°C° 0 mm 1 mps 751 mmHg 39%
    11:00 +26°C° 0 mm 1 mps 751 mmHg 33%
    12:00 +27°C° 0 mm 2 mps 750 mmHg 29%
    13:00 +28°C° 0 mm 2 mps 750 mmHg 25%
    14:00 +29°C° 0 mm 3 mps 749 mmHg 21%
    15:00 +27°C° 0 mm 3 mps 750 mmHg 24%
    16:00 +26°C° 0 mm 2 mps 750 mmHg 26%
    17:00 +24°C° 0 mm 2 mps 750 mmHg 29%
    18:00 +24°C° 0 mm 3 mps 750 mmHg 30%
    19:00 +22°C° 0 mm 3 mps 751 mmHg 31%
    20:00 +21°C° 0 mm 3 mps 751 mmHg 33%
    21:00 +21°C° 0 mm 3 mps 751 mmHg 35%
    22:00 +20°C° 0 mm 2 mps 751 mmHg 37%
    23:00 +19°C° 0 mm 2 mps 751 mmHg 39%
    Show more